Home   Weather   Glendale   Past weeks

Flag for USA Past Weather in Glendale, California, USA — Yesterday and Last 2 Weeks

Now
50 °F

Overcast.


Feels Like: 46 °F
Forecast: 45 / 54 °F
Wind: 9 mph from Southeast

Location: Bob Hope Airport

Current Time: Feb 26, 2017 at 11:15:38 pm

Latest Report: Feb 26, 2017 at 10:53 pm


Visibility: 10 mi

Pressure: 29.93 "Hg

Humidity: 74%

Dew Point: 42 °F

Location of GlendaleLocation

Past Weather in Glendale — Graph

°F

Glendale Temperature Yesterday

Maximum temperature yesterday: 60 °F (at 12:53 pm)
Minimum temperature yesterday: 38 °F (at 5:53 am)
Average temperature yesterday: 49 °F

High & Low Weather Summary for the Past Weeks

 TemperatureHumidityPressure
High78 °F (Feb 15, 12:53 pm)97% (Feb 22, 5:27 am)30.36 "Hg (Feb 22, 5:27 am)
Low38 °F (Feb 24, 6:53 am)14% (Feb 15, 2:53 pm)29.50 "Hg (Feb 17, 1:57 pm)
Average56 °F64%30.01 "Hg
* Reported Feb 11 9:53 pm — Feb 26 9:53 pm, Glendale, Weather by CustomWeather, © 2017

Note: Actual official high and low records may vary slightly from our data, if they occured in-between our weather recording intervals... More about our weather records

Advertising

Glendale Weather History for the Previous 24 Hours

Scroll right to see more
 ConditionsComfort  
Time TempWeatherWind HumidityBarometerVisibility
9:53 pm
Sun, Feb 26
51 °FOvercast.10 mph69%29.94 "Hg10 mi
8:53 pm51 °FMostly cloudy.12 mph69%29.94 "Hg10 mi
8:26 pm51 °FMostly cloudy.8 mph71%29.95 "Hg10 mi
7:53 pm51 °FOvercast.9 mph71%29.93 "Hg10 mi
6:53 pm51 °FOvercast.10 mph69%29.93 "Hg10 mi
6:07 pm52 °FMostly cloudy.6 mph72%29.94 "Hg10 mi
4:53 pm53 °FMostly cloudy.10 mph74%29.91 "Hg10 mi
3:53 pm54 °FMostly cloudy.10 mph72%29.90 "Hg10 mi
2:53 pm55 °FMore clouds than sun.10 mph64%29.90 "Hg10 mi
1:53 pm56 °FOvercast.9 mph55%29.91 "Hg10 mi
1:31 pm56 °FOvercast.13 mph55%29.94 "Hg10 mi
12:53 pm55 °FPartly sunny.13 mph57%29.93 "Hg10 mi
11:53 am54 °FPartly sunny.12 mph62%29.96 "Hg10 mi
10:53 am51 °FMostly cloudy.7 mph69%29.99 "Hg10 mi
9:53 am50 °FMore clouds than sun.N/A74%29.99 "Hg10 mi
8:53 am48 °FLight rain. Mostly cloudy.6 mph77%29.98 "Hg10 mi
7:53 am47 °FLight rain. Mostly cloudy.5 mph83%29.97 "Hg10 mi
6:53 am46 °FMostly cloudy.No wind79%29.96 "Hg10 mi
5:53 am46 °FLight rain. Overcast.No wind79%29.96 "Hg10 mi
4:53 am45 °FMostly cloudy.No wind80%29.95 "Hg10 mi
3:53 am46 °FLight rain. Overcast.No wind79%29.97 "Hg10 mi
2:53 am48 °FLight rain. Overcast.7 mph74%29.96 "Hg10 mi
1:53 am48 °FMostly cloudy.3 mph74%29.96 "Hg10 mi
12:53 am49 °FMostly cloudy.7 mph71%29.96 "Hg10 mi
12:02 am49 °FPassing clouds.3 mph69%30.00 "Hg10 mi
11:09 pm
Sat, Feb 25
49 °FPassing clouds.No wind69%30.00 "Hg10 mi
Weather by CustomWeather, © 2017

See weather overviewHow to use our weather pages